Time,TemperatureF,DewpointF,PressureIn,WindDirection,WindDirectionDegrees,WindSpeedMPH,WindSpeedGustMPH,Humidity,HourlyPrecipIn,Conditions,Clouds,dailyrainin,SolarRadiationWatts/m^2,SoftwareType,DateUTC
2013-06-17 00:05:00,77.4,74.6,29.98,South,184,0.0,0.0,91,0.00,,,0.00,0,Wunderground v.1.15,2013-06-17 05:05:00,
2013-06-17 00:10:00,77.4,74.9,29.97,SSE,165,0.0,0.0,92,0.00,,,0.00,0,Wunderground v.1.15,2013-06-17 05:10:00,
2013-06-17 00:15:00,77.3,74.5,29.98,SSE,165,0.0,0.0,91,0.00,,,0.00,0,Wunderground v.1.15,2013-06-17 05:15:00,
2013-06-17 00:20:00,77.3,74.8,29.97,South,179,0.0,0.0,92,0.00,,,0.00,0,Wunderground v.1.15,2013-06-17 05:20:00,
2013-06-17 00:30:00,77.1,74.6,29.97,South,179,0.0,0.0,92,0.00,,,0.00,0,Wunderground v.1.15,2013-06-17 05:30:00,
2013-06-17 00:35:00,77.0,74.5,29.98,South,179,0.0,0.0,92,0.00,,,0.00,0,Wunderground v.1.15,2013-06-17 05:35:00,
2013-06-17 00:40:00,76.9,74.4,29.97,South,179,0.0,0.0,92,0.00,,,0.00,0,Wunderground v.1.15,2013-06-17 05:40:00,
2013-06-17 00:45:00,76.8,74.6,29.98,South,179,0.0,0.0,93,0.00,,,0.00,0,Wunderground v.1.15,2013-06-17 05:45:00,
2013-06-17 00:50:00,76.7,74.5,29.98,South,179,0.0,0.0,93,0.00,,,0.00,0,Wunderground v.1.15,2013-06-17 05:50:00,
2013-06-17 01:00:00,76.5,74.3,29.98,South,179,0.0,0.0,93,0.00,,,0.00,0,Wunderground v.1.15,2013-06-17 06:00:00,
2013-06-17 01:05:00,76.4,74.2,29.97,South,179,0.0,0.0,93,0.00,,,0.00,0,Wunderground v.1.15,2013-06-17 06:05:00,
2013-06-17 01:15:00,76.1,74.2,29.98,South,179,0.0,0.0,94,0.00,,,0.00,0,Wunderground v.1.15,2013-06-17 06:15:00,
2013-06-17 01:25:00,75.9,74.0,29.97,South,179,0.0,0.0,94,0.00,,,0.00,0,Wunderground v.1.15,2013-06-17 06:25:00,
2013-06-17 01:30:00,75.8,73.9,29.97,South,179,0.0,0.0,94,0.00,,,0.00,0,Wunderground v.1.15,2013-06-17 06:30:00,
2013-06-17 01:35:00,75.8,73.9,29.97,South,179,0.0,0.0,94,0.00,,,0.00,0,Wunderground v.1.15,2013-06-17 06:35:00,
2013-06-17 01:40:00,75.6,73.8,29.97,South,179,0.0,0.0,94,0.00,,,0.00,0,Wunderground v.1.15,2013-06-17 06:40:00,
2013-06-17 01:50:00,75.4,73.6,29.97,South,179,0.0,0.0,94,0.00,,,0.00,0,Wunderground v.1.15,2013-06-17 06:50:00,
2013-06-17 01:55:00,75.4,73.9,29.97,South,179,0.0,0.0,95,0.00,,,0.00,0,Wunderground v.1.15,2013-06-17 06:55:00,
2013-06-17 02:00:00,75.2,73.7,29.96,South,179,0.0,0.0,95,0.00,,,0.00,0,Wunderground v.1.15,2013-06-17 07:00:00,
2013-06-17 02:05:00,75.1,73.6,29.96,South,179,0.0,0.0,95,0.00,,,0.00,0,Wunderground v.1.15,2013-06-17 07:05:00,
2013-06-17 02:10:00,75.1,73.6,29.96,South,179,0.0,0.0,95,0.00,,,0.00,0,Wunderground v.1.15,2013-06-17 07:10:00,
2013-06-17 02:15:00,75.0,73.5,29.96,South,179,0.0,0.0,95,0.00,,,0.00,0,Wunderground v.1.15,2013-06-17 07:15:00,
2013-06-17 02:25:00,74.7,73.2,29.95,South,179,0.0,0.0,95,0.00,,,0.00,0,Wunderground v.1.15,2013-06-17 07:25:00,
2013-06-17 02:30:00,74.6,73.1,29.95,South,179,0.0,0.0,95,0.00,,,0.00,0,Wunderground v.1.15,2013-06-17 07:30:00,
2013-06-17 02:35:00,74.6,73.1,29.95,South,179,0.0,0.0,95,0.00,,,0.00,5,Wunderground v.1.15,2013-06-17 07:35:00,
2013-06-17 02:40:00,74.6,73.4,29.95,South,179,0.0,0.0,96,0.00,,,0.00,5,Wunderground v.1.15,2013-06-17 07:40:00,
2013-06-17 02:45:00,74.6,73.4,29.95,South,179,0.0,0.0,96,0.00,,,0.00,5,Wunderground v.1.15,2013-06-17 07:45:00,
2013-06-17 02:55:00,74.5,73.3,29.95,South,179,0.0,0.0,96,0.00,,,0.00,5,Wunderground v.1.15,2013-06-17 07:55:00,
2013-06-17 03:05:00,74.2,73.0,29.95,South,179,0.0,0.0,96,0.00,,,0.00,5,Wunderground v.1.15,2013-06-17 08:05:00,
2013-06-17 03:10:00,74.1,72.6,29.95,South,179,0.0,0.0,95,0.00,,,0.00,5,Wunderground v.1.15,2013-06-17 08:10:00,
2013-06-17 03:15:00,74.0,72.8,29.95,South,179,0.0,0.0,96,0.00,,,0.00,5,Wunderground v.1.15,2013-06-17 08:15:00,
2013-06-17 03:25:00,74.0,72.8,29.95,South,179,0.0,0.0,96,0.00,,,0.00,7,Wunderground v.1.15,2013-06-17 08:25:00,
2013-06-17 03:30:00,74.0,72.8,29.95,South,179,0.0,0.0,96,0.00,,,0.00,7,Wunderground v.1.15,2013-06-17 08:30:00,
2013-06-17 03:35:00,74.1,72.9,29.95,South,179,0.0,0.0,96,0.00,,,0.00,7,Wunderground v.1.15,2013-06-17 08:35:00,
2013-06-17 03:40:00,74.1,72.9,29.95,South,179,0.0,0.0,96,0.00,,,0.00,7,Wunderground v.1.15,2013-06-17 08:40:00,
2013-06-17 03:50:00,73.9,72.7,29.95,South,179,0.0,0.0,96,0.00,,,0.00,7,Wunderground v.1.15,2013-06-17 08:50:00,
2013-06-17 03:55:00,73.8,72.6,29.94,South,179,0.0,0.0,96,0.00,,,0.00,7,Wunderground v.1.15,2013-06-17 08:55:00,
2013-06-17 04:00:00,73.7,72.5,29.95,South,179,0.0,0.0,96,0.00,,,0.00,7,Wunderground v.1.15,2013-06-17 09:00:00,
2013-06-17 04:05:00,73.8,72.6,29.94,South,179,0.0,0.0,96,0.00,,,0.00,7,Wunderground v.1.15,2013-06-17 09:05:00,
2013-06-17 04:15:00,74.0,72.8,29.94,South,179,0.0,0.0,96,0.00,,,0.00,7,Wunderground v.1.15,2013-06-17 09:15:00,
2013-06-17 04:25:00,74.1,72.9,29.93,South,179,0.0,0.0,96,0.00,,,0.00,7,Wunderground v.1.15,2013-06-17 09:25:00,
2013-06-17 04:30:00,74.0,72.8,29.93,South,179,0.0,0.0,96,0.00,,,0.00,7,Wunderground v.1.15,2013-06-17 09:30:00,
2013-06-17 04:35:00,73.9,72.7,29.93,South,179,0.0,0.0,96,0.00,,,0.00,9,Wunderground v.1.15,2013-06-17 09:35:00,
2013-06-17 04:44:00,73.8,72.6,29.93,South,179,0.0,0.0,96,0.00,,,0.00,9,Wunderground v.1.15,2013-06-17 09:44:00,
2013-06-17 04:50:00,73.8,72.6,29.93,South,179,0.0,0.0,96,0.00,,,0.00,9,Wunderground v.1.15,2013-06-17 09:50:00,
2013-06-17 04:55:00,73.9,73.0,29.93,South,179,0.0,0.0,97,0.00,,,0.00,9,Wunderground v.1.15,2013-06-17 09:55:00,
2013-06-17 05:00:00,73.8,72.6,29.93,South,179,0.0,0.0,96,0.00,,,0.00,9,Wunderground v.1.15,2013-06-17 10:00:00,
2013-06-17 05:10:00,73.7,72.5,29.94,South,179,0.0,0.0,96,0.00,,,0.00,9,Wunderground v.1.15,2013-06-17 10:10:00,
2013-06-17 05:15:00,73.7,72.8,29.94,South,179,0.0,0.0,97,0.00,,,0.00,9,Wunderground v.1.15,2013-06-17 10:15:00,
2013-06-17 05:20:00,73.7,72.5,29.94,South,179,0.0,0.0,96,0.00,,,0.00,9,Wunderground v.1.15,2013-06-17 10:20:00,
2013-06-17 05:25:00,73.5,72.3,29.94,South,179,0.0,0.0,96,0.00,,,0.00,9,Wunderground v.1.15,2013-06-17 10:25:00,
2013-06-17 05:30:00,73.5,72.3,29.94,South,179,0.0,0.0,96,0.00,,,0.00,9,Wunderground v.1.15,2013-06-17 10:30:00,
2013-06-17 05:40:00,73.3,72.1,29.94,South,179,0.0,0.0,96,0.00,,,0.00,9,Wunderground v.1.15,2013-06-17 10:40:00,
2013-06-17 05:45:00,73.2,72.0,29.95,South,179,0.0,0.0,96,0.00,,,0.00,9,Wunderground v.1.15,2013-06-17 10:45:00,
2013-06-17 05:50:00,73.2,72.0,29.94,South,179,0.0,0.0,96,0.00,,,0.00,9,Wunderground v.1.15,2013-06-17 10:50:00,
2013-06-17 06:00:00,73.0,71.8,29.94,South,179,0.0,0.0,96,0.00,,,0.00,9,Wunderground v.1.15,2013-06-17 11:00:00,
2013-06-17 06:10:00,72.9,71.7,29.95,South,179,0.0,0.0,96,0.00,,,0.00,9,Wunderground v.1.15,2013-06-17 11:10:00,
2013-06-17 06:15:00,72.8,71.6,29.95,South,179,0.0,0.0,96,0.00,,,0.00,9,Wunderground v.1.15,2013-06-17 11:15:00,
2013-06-17 06:20:00,72.8,71.6,29.95,South,179,0.0,0.0,96,0.00,,,0.00,12,Wunderground v.1.15,2013-06-17 11:20:00,
2013-06-17 06:25:00,72.8,71.6,29.95,South,179,0.0,0.0,96,0.00,,,0.00,18,Wunderground v.1.15,2013-06-17 11:25:00,
2013-06-17 06:35:00,72.9,72.0,29.95,South,179,0.0,0.0,97,0.00,,,0.00,28,Wunderground v.1.15,2013-06-17 11:35:00,
2013-06-17 06:40:00,73.0,72.1,29.95,South,179,0.0,0.0,97,0.00,,,0.00,23,Wunderground v.1.15,2013-06-17 11:40:00,
2013-06-17 06:45:00,73.3,72.4,29.95,South,179,0.0,0.0,97,0.00,,,0.00,25,Wunderground v.1.15,2013-06-17 11:45:00,
2013-06-17 06:50:00,73.7,72.8,29.95,South,180,0.0,0.0,97,0.00,,,0.00,28,Wunderground v.1.15,2013-06-17 11:50:00,
2013-06-17 06:55:00,73.8,72.9,29.95,South,180,0.0,0.0,97,0.00,,,0.00,32,Wunderground v.1.15,2013-06-17 11:55:00,
2013-06-17 07:05:00,74.2,73.3,29.95,South,180,0.0,0.0,97,0.00,,,0.00,74,Wunderground v.1.15,2013-06-17 12:05:00,
2013-06-17 07:15:00,74.7,73.8,29.96,South,180,0.0,0.0,97,0.00,,,0.00,83,Wunderground v.1.15,2013-06-17 12:15:00,
2013-06-17 07:20:00,75.2,74.3,29.96,South,180,0.0,0.0,97,0.00,,,0.00,90,Wunderground v.1.15,2013-06-17 12:20:00,
2013-06-17 07:29:00,75.7,74.8,29.96,South,180,0.0,0.0,97,0.00,,,0.00,93,Wunderground v.1.15,2013-06-17 12:29:00,
2013-06-17 07:35:00,75.8,74.9,29.97,South,180,0.0,0.0,97,0.00,,,0.00,114,Wunderground v.1.15,2013-06-17 12:35:00,
2013-06-17 07:40:00,76.0,75.1,29.96,South,180,0.0,0.0,97,0.00,,,0.00,206,Wunderground v.1.15,2013-06-17 12:40:00,
2013-06-17 07:49:00,77.3,76.4,29.97,South,188,1.0,1.0,97,0.00,,,0.00,211,Wunderground v.1.15,2013-06-17 12:49:00,
2013-06-17 07:54:00,78.0,76.8,29.97,SSW,199,1.0,2.0,96,0.00,,,0.00,243,Wunderground v.1.15,2013-06-17 12:54:00,
2013-06-17 08:00:00,78.6,76.7,29.97,SSW,199,1.0,1.0,94,0.00,,,0.00,276,Wunderground v.1.15,2013-06-17 13:00:00,
2013-06-17 08:05:00,79.1,76.6,29.97,SW,234,1.0,2.0,92,0.00,,,0.00,265,Wunderground v.1.15,2013-06-17 13:05:00,
2013-06-17 08:10:00,79.7,76.8,29.97,SW,220,2.0,2.0,91,0.00,,,0.00,308,Wunderground v.1.15,2013-06-17 13:10:00,
2013-06-17 08:15:00,80.2,77.3,29.97,SSE,163,3.0,4.0,91,0.00,,,0.00,188,Wunderground v.1.15,2013-06-17 13:15:00,
2013-06-17 08:20:00,80.7,77.2,29.97,SW,217,3.0,5.0,89,0.00,,,0.00,371,Wunderground v.1.15,2013-06-17 13:20:00,
2013-06-17 08:30:00,81.4,77.2,29.97,WSW,246,3.0,6.0,87,0.00,,,0.00,381,Wunderground v.1.15,2013-06-17 13:30:00,
2013-06-17 08:35:00,81.5,77.6,29.97,SW,236,4.0,6.0,88,0.00,,,0.00,397,Wunderground v.1.15,2013-06-17 13:35:00,
2013-06-17 08:40:00,82.3,78.4,29.97,SW,214,3.0,4.0,88,0.00,,,0.00,420,Wunderground v.1.15,2013-06-17 13:40:00,
2013-06-17 08:45:00,82.8,77.8,29.97,SW,227,3.0,4.0,85,0.00,,,0.00,452,Wunderground v.1.15,2013-06-17 13:45:00,
2013-06-17 08:54:00,83.5,77.8,29.97,SSW,212,3.0,6.0,83,0.00,,,0.00,515,Wunderground v.1.15,2013-06-17 13:54:00,
2013-06-17 09:00:00,83.4,78.1,29.97,SSW,213,4.0,5.0,84,0.00,,,0.00,538,Wunderground v.1.15,2013-06-17 14:00:00,
2013-06-17 09:05:00,83.5,77.8,29.98,WNW,287,4.0,5.0,83,0.00,,,0.00,538,Wunderground v.1.15,2013-06-17 14:05:00,
2013-06-17 09:10:00,84.0,77.5,29.98,WSW,251,4.0,7.0,81,0.00,,,0.00,557,Wunderground v.1.15,2013-06-17 14:10:00,
2013-06-17 09:15:00,84.0,77.5,29.98,WSW,252,5.0,7.0,81,0.00,,,0.00,571,Wunderground v.1.15,2013-06-17 14:15:00,
2013-06-17 09:25:00,84.0,77.9,29.98,SSW,213,5.0,5.0,82,0.00,,,0.00,684,Wunderground v.1.15,2013-06-17 14:25:00,
2013-06-17 09:35:00,84.1,76.9,29.98,SW,223,5.0,6.0,79,0.00,,,0.00,272,Wunderground v.1.15,2013-06-17 14:35:00,
2013-06-17 09:40:00,83.9,77.1,29.98,SSW,201,6.0,6.0,80,0.00,,,0.00,142,Wunderground v.1.15,2013-06-17 14:40:00,
2013-06-17 09:45:00,83.7,77.2,29.99,SSW,207,5.0,6.0,81,0.00,,,0.00,696,Wunderground v.1.15,2013-06-17 14:45:00,
2013-06-17 09:55:00,84.8,77.9,29.99,SW,225,2.0,4.0,80,0.00,,,0.00,352,Wunderground v.1.15,2013-06-17 14:55:00,
2013-06-17 10:00:00,85.0,77.0,29.99,SW,225,2.0,2.0,77,0.00,,,0.00,109,Wunderground v.1.15,2013-06-17 15:00:00,
2013-06-17 10:05:00,84.6,76.6,29.99,WNW,294,3.0,3.0,77,0.00,,,0.00,139,Wunderground v.1.15,2013-06-17 15:05:00,
2013-06-17 10:10:00,84.5,76.5,29.99,SW,235,3.0,4.0,77,0.00,,,0.00,733,Wunderground v.1.15,2013-06-17 15:10:00,
2013-06-17 10:15:00,85.1,77.1,29.99,SSW,211,3.0,4.0,77,0.00,,,0.00,751,Wunderground v.1.15,2013-06-17 15:15:00,
2013-06-17 10:25:00,86.6,76.5,30.00,West,267,3.0,6.0,72,0.00,,,0.00,849,Wunderground v.1.15,2013-06-17 15:25:00,
2013-06-17 10:30:00,86.8,77.1,30.00,SW,225,4.0,5.0,73,0.00,,,0.00,854,Wunderground v.1.15,2013-06-17 15:30:00,
2013-06-17 10:35:00,87.3,76.3,30.00,SW,228,4.0,5.0,70,0.00,,,0.00,167,Wunderground v.1.15,2013-06-17 15:35:00,
2013-06-17 10:45:00,87.6,76.6,30.00,SW,214,3.0,5.0,70,0.00,,,0.00,828,Wunderground v.1.15,2013-06-17 15:45:00,
2013-06-17 10:55:00,88.8,76.0,29.99,West,265,5.0,5.0,66,0.00,,,0.00,840,Wunderground v.1.15,2013-06-17 15:55:00,
2013-06-17 11:00:00,89.0,77.1,30.00,WSW,239,4.0,4.0,68,0.00,,,0.00,844,Wunderground v.1.15,2013-06-17 16:00:00,
2013-06-17 11:05:00,89.2,75.4,29.99,SW,227,3.0,7.0,64,0.00,,,0.00,861,Wunderground v.1.15,2013-06-17 16:05:00,
2013-06-17 11:10:00,88.8,75.0,30.00,SW,228,6.0,6.0,64,0.00,,,0.00,863,Wunderground v.1.15,2013-06-17 16:10:00,
2013-06-17 11:20:00,89.3,76.9,29.99,SW,221,4.0,4.0,67,0.00,,,0.00,946,Wunderground v.1.15,2013-06-17 16:20:00,
2013-06-17 11:25:00,89.4,76.1,30.00,West,271,5.0,5.0,65,0.00,,,0.00,756,Wunderground v.1.15,2013-06-17 16:25:00,
2013-06-17 11:30:00,89.6,76.7,30.00,SW,235,3.0,3.0,66,0.00,,,0.00,930,Wunderground v.1.15,2013-06-17 16:30:00,
2013-06-17 11:35:00,90.4,76.6,30.00,NW,322,2.0,4.0,64,0.00,,,0.00,909,Wunderground v.1.15,2013-06-17 16:35:00,
2013-06-17 11:44:00,90.8,76.5,30.00,SW,227,4.0,6.0,63,0.00,,,0.00,1104,Wunderground v.1.15,2013-06-17 16:44:00,
2013-06-17 11:50:00,90.3,76.0,30.00,SW,221,4.0,4.0,63,0.00,,,0.00,1023,Wunderground v.1.15,2013-06-17 16:50:00,
2013-06-17 12:00:00,90.7,76.8,30.00,WNW,298,4.0,5.0,64,0.00,,,0.00,1020,Wunderground v.1.15,2013-06-17 17:00:00,
2013-06-17 12:09:00,91.2,76.8,30.01,WNW,292,3.0,3.0,63,0.00,,,0.00,995,Wunderground v.1.15,2013-06-17 17:09:00,
2013-06-17 12:15:00,91.6,76.7,30.00,SSW,205,3.0,4.0,62,0.00,,,0.00,974,Wunderground v.1.15,2013-06-17 17:15:00,
2013-06-17 12:20:00,91.5,76.1,30.00,South,186,3.0,4.0,61,0.00,,,0.00,988,Wunderground v.1.15,2013-06-17 17:20:00,
2013-06-17 12:25:00,91.0,75.2,30.00,West,262,4.0,4.0,60,0.00,,,0.00,979,Wunderground v.1.15,2013-06-17 17:25:00,
2013-06-17 12:34:00,91.6,76.7,30.00,SW,223,3.0,7.0,62,0.00,,,0.00,1048,Wunderground v.1.15,2013-06-17 17:34:00,
2013-06-17 12:39:00,91.3,75.0,29.99,SW,233,4.0,4.0,59,0.00,,,0.00,244,Wunderground v.1.15,2013-06-17 17:39:00,
2013-06-17 12:45:00,90.5,74.7,29.99,NW,317,4.0,4.0,60,0.00,,,0.00,134,Wunderground v.1.15,2013-06-17 17:45:00,
2013-06-17 12:50:00,89.3,74.6,29.99,WNW,285,3.0,5.0,62,0.00,,,0.00,1041,Wunderground v.1.15,2013-06-17 17:50:00,
2013-06-17 12:55:00,89.7,75.4,29.99,WNW,298,3.0,5.0,63,0.00,,,0.00,1013,Wunderground v.1.15,2013-06-17 17:55:00,
2013-06-17 13:00:00,90.5,75.7,29.98,WSW,249,3.0,7.0,62,0.00,,,0.00,1000,Wunderground v.1.15,2013-06-17 18:00:00,
2013-06-17 13:09:00,91.6,74.7,29.98,WNW,282,4.0,4.0,58,0.00,,,0.00,1049,Wunderground v.1.15,2013-06-17 18:09:00,
2013-06-17 13:15:00,91.3,75.0,29.98,WSW,243,3.0,5.0,59,0.00,,,0.00,1023,Wunderground v.1.15,2013-06-17 18:15:00,
2013-06-17 13:20:00,91.4,75.1,29.97,West,276,3.0,3.0,59,0.00,,,0.00,1034,Wunderground v.1.15,2013-06-17 18:20:00,
2013-06-17 13:25:00,92.0,77.6,29.97,WSW,248,2.0,3.0,63,0.00,,,0.00,1016,Wunderground v.1.15,2013-06-17 18:25:00,
2013-06-17 13:30:00,92.4,75.0,29.97,SW,227,3.0,5.0,57,0.00,,,0.00,995,Wunderground v.1.15,2013-06-17 18:30:00,
2013-06-17 13:40:00,92.6,75.7,29.96,SW,229,3.0,3.0,58,0.00,,,0.00,976,Wunderground v.1.15,2013-06-17 18:40:00,
2013-06-17 13:45:00,92.7,73.6,29.96,SW,233,1.0,3.0,54,0.00,,,0.00,993,Wunderground v.1.15,2013-06-17 18:45:00,
2013-06-17 13:50:00,93.1,75.6,29.96,SW,219,1.0,4.0,57,0.00,,,0.00,976,Wunderground v.1.15,2013-06-17 18:50:00,
2013-06-17 13:55:00,93.2,73.5,29.95,NNW,328,1.0,4.0,53,0.00,,,0.00,926,Wunderground v.1.15,2013-06-17 18:55:00,
2013-06-17 14:05:00,93.2,74.6,29.95,South,183,1.0,4.0,55,0.00,,,0.00,1020,Wunderground v.1.15,2013-06-17 19:05:00,
2013-06-17 14:10:00,93.5,76.0,29.95,WSW,246,2.0,2.0,57,0.00,,,0.00,972,Wunderground v.1.15,2013-06-17 19:10:00,
2013-06-17 14:20:00,93.8,74.6,29.94,WNW,299,3.0,3.0,54,0.00,,,0.00,1018,Wunderground v.1.15,2013-06-17 19:20:00,
2013-06-17 14:25:00,94.0,77.0,29.94,WSW,246,2.0,3.0,58,0.00,,,0.00,983,Wunderground v.1.15,2013-06-17 19:25:00,
2013-06-17 14:30:00,94.1,74.4,29.94,SW,226,2.0,6.0,53,0.00,,,0.00,158,Wunderground v.1.15,2013-06-17 19:30:00,
2013-06-17 14:40:00,94.1,73.2,29.93,West,262,2.0,4.0,51,0.00,,,0.00,988,Wunderground v.1.15,2013-06-17 19:40:00,
2013-06-17 14:45:00,94.6,74.2,29.93,WNW,286,3.0,4.0,52,0.00,,,0.00,977,Wunderground v.1.15,2013-06-17 19:45:00,
2013-06-17 14:50:00,95.0,74.6,29.92,West,278,2.0,2.0,52,0.00,,,0.00,960,Wunderground v.1.15,2013-06-17 19:50:00,
2013-06-17 14:55:00,95.3,74.3,29.93,WSW,257,1.0,2.0,51,0.00,,,0.00,858,Wunderground v.1.15,2013-06-17 19:55:00,
2013-06-17 15:00:00,95.1,74.1,29.92,WSW,254,3.0,3.0,51,0.00,,,0.00,747,Wunderground v.1.15,2013-06-17 20:00:00,
2013-06-17 15:09:00,94.1,73.8,29.91,West,279,2.0,2.0,52,0.00,,,0.00,628,Wunderground v.1.15,2013-06-17 20:09:00,
2013-06-17 15:15:00,93.6,75.0,29.91,SW,219,3.0,3.0,55,0.00,,,0.00,188,Wunderground v.1.15,2013-06-17 20:15:00,
2013-06-17 15:20:00,92.9,73.8,29.91,SW,232,3.0,3.0,54,0.00,,,0.00,287,Wunderground v.1.15,2013-06-17 20:20:00,
2013-06-17 15:25:00,92.8,75.3,29.90,SW,227,2.0,3.0,57,0.00,,,0.00,886,Wunderground v.1.15,2013-06-17 20:25:00,
2013-06-17 15:30:00,93.3,74.7,29.90,SW,228,2.0,6.0,55,0.00,,,0.00,763,Wunderground v.1.15,2013-06-17 20:30:00,
2013-06-17 15:40:00,92.9,74.9,29.90,SW,226,3.0,4.0,56,0.00,,,0.00,596,Wunderground v.1.15,2013-06-17 20:40:00,
2013-06-17 15:45:00,92.6,74.6,29.89,South,186,2.0,4.0,56,0.00,,,0.00,724,Wunderground v.1.15,2013-06-17 20:45:00,
2013-06-17 15:50:00,92.8,74.8,29.89,SSW,211,2.0,2.0,56,0.00,,,0.00,740,Wunderground v.1.15,2013-06-17 20:50:00,
2013-06-17 15:59:00,93.0,75.5,29.89,WSW,242,2.0,5.0,57,0.00,,,0.00,682,Wunderground v.1.15,2013-06-17 20:59:00,
2013-06-17 16:05:00,93.0,76.6,29.89,South,172,2.0,5.0,59,0.00,,,0.00,684,Wunderground v.1.15,2013-06-17 21:05:00,
2013-06-17 16:10:00,92.9,74.9,29.89,SW,218,2.0,2.0,56,0.00,,,0.00,636,Wunderground v.1.15,2013-06-17 21:10:00,
2013-06-17 16:15:00,92.8,75.3,29.89,SW,218,3.0,4.0,57,0.00,,,0.00,682,Wunderground v.1.15,2013-06-17 21:15:00,
2013-06-17 16:24:00,92.6,74.6,29.89,WSW,250,4.0,10.0,56,0.00,,,0.00,722,Wunderground v.1.15,2013-06-17 21:24:00,
2013-06-17 16:30:00,92.6,75.1,29.89,SSW,207,5.0,5.0,57,0.00,,,0.00,693,Wunderground v.1.15,2013-06-17 21:30:00,
2013-06-17 16:35:00,92.8,75.3,29.89,SW,236,4.0,6.0,57,0.00,,,0.00,654,Wunderground v.1.15,2013-06-17 21:35:00,
2013-06-17 16:45:00,92.4,75.5,29.89,SW,236,5.0,6.0,58,0.00,,,0.00,610,Wunderground v.1.15,2013-06-17 21:45:00,
2013-06-17 16:50:00,92.5,76.6,29.89,SSW,195,4.0,4.0,60,0.00,,,0.00,585,Wunderground v.1.15,2013-06-17 21:50:00,
2013-06-17 16:59:00,92.0,76.1,29.89,South,179,3.0,3.0,60,0.00,,,0.00,139,Wunderground v.1.15,2013-06-17 21:59:00,
2013-06-17 17:05:00,91.5,75.7,29.89,South,173,3.0,3.0,60,0.00,,,0.00,612,Wunderground v.1.15,2013-06-17 22:05:00,
2013-06-17 17:10:00,91.2,76.4,29.89,South,177,4.0,4.0,62,0.00,,,0.00,214,Wunderground v.1.15,2013-06-17 22:10:00,
2013-06-17 17:15:00,90.8,76.0,29.89,SW,220,3.0,5.0,62,0.00,,,0.00,123,Wunderground v.1.15,2013-06-17 22:15:00,
2013-06-17 17:20:00,90.2,76.4,29.89,SSW,213,3.0,5.0,64,0.00,,,0.00,575,Wunderground v.1.15,2013-06-17 22:20:00,
2013-06-17 17:29:00,90.2,75.9,29.89,SSW,213,5.0,11.0,63,0.00,,,0.00,517,Wunderground v.1.15,2013-06-17 22:29:00,
2013-06-17 17:35:00,90.0,76.6,29.89,WSW,238,5.0,11.0,65,0.00,,,0.00,257,Wunderground v.1.15,2013-06-17 22:35:00,
2013-06-17 17:40:00,90.0,76.2,29.89,SSW,201,4.0,4.0,64,0.00,,,0.00,113,Wunderground v.1.15,2013-06-17 22:40:00,
2013-06-17 17:45:00,89.6,77.2,29.89,SW,234,3.0,6.0,67,0.00,,,0.00,220,Wunderground v.1.15,2013-06-17 22:45:00,
2013-06-17 17:54:00,89.3,76.0,29.89,SW,231,4.0,11.0,65,0.00,,,0.00,424,Wunderground v.1.15,2013-06-17 22:54:00,
2013-06-17 17:59:00,89.6,76.7,29.89,South,183,4.0,4.0,66,0.00,,,0.00,364,Wunderground v.1.15,2013-06-17 22:59:00,
2013-06-17 18:05:00,89.6,75.8,29.89,SW,222,3.0,5.0,64,0.00,,,0.00,371,Wunderground v.1.15,2013-06-17 23:05:00,
2013-06-17 18:10:00,89.5,75.2,29.89,SSE,167,3.0,5.0,63,0.00,,,0.00,353,Wunderground v.1.15,2013-06-17 23:10:00,
2013-06-17 18:15:00,89.3,75.0,29.89,South,175,4.0,5.0,63,0.00,,,0.00,339,Wunderground v.1.15,2013-06-17 23:15:00,
2013-06-17 18:24:00,89.0,75.2,29.89,SW,224,5.0,5.0,64,0.00,,,0.00,299,Wunderground v.1.15,2013-06-17 23:24:00,
2013-06-17 18:29:00,88.8,75.0,29.89,SW,226,4.0,4.0,64,0.00,,,0.00,285,Wunderground v.1.15,2013-06-17 23:29:00,
2013-06-17 18:35:00,88.7,75.0,29.89,SSW,197,4.0,4.0,64,0.00,,,0.00,267,Wunderground v.1.15,2013-06-17 23:35:00,
2013-06-17 18:40:00,88.5,75.2,29.89,SW,228,3.0,4.0,65,0.00,,,0.00,250,Wunderground v.1.15,2013-06-17 23:40:00,
2013-06-17 18:45:00,88.4,74.7,29.89,SW,230,3.0,10.0,64,0.00,,,0.00,225,Wunderground v.1.15,2013-06-17 23:45:00,
2013-06-17 18:50:00,88.1,74.8,29.89,SW,217,3.0,5.0,65,0.00,,,0.00,153,Wunderground v.1.15,2013-06-17 23:50:00,
2013-06-17 18:55:00,87.6,74.8,29.89,SSW,195,4.0,5.0,66,0.00,,,0.00,156,Wunderground v.1.15,2013-06-17 23:55:00,
2013-06-17 19:04:00,87.2,74.9,29.89,SSW,211,3.0,3.0,67,0.00,,,0.00,163,Wunderground v.1.15,2013-06-18 00:04:00,
2013-06-17 19:10:00,87.2,75.3,29.89,South,184,3.0,3.0,68,0.00,,,0.00,146,Wunderground v.1.15,2013-06-18 00:10:00,
2013-06-17 19:15:00,87.0,75.6,29.89,SW,224,2.0,4.0,69,0.00,,,0.00,123,Wunderground v.1.15,2013-06-18 00:15:00,
2013-06-17 19:20:00,86.9,75.1,29.89,SSE,162,2.0,4.0,68,0.00,,,0.00,111,Wunderground v.1.15,2013-06-18 00:20:00,
2013-06-17 19:25:00,86.7,74.9,29.89,WSW,242,2.0,5.0,68,0.00,,,0.00,95,Wunderground v.1.15,2013-06-18 00:25:00,
2013-06-17 19:34:00,86.3,75.4,29.89,South,175,3.0,7.0,70,0.00,,,0.00,67,Wunderground v.1.15,2013-06-18 00:34:00,
2013-06-17 19:40:00,86.1,74.7,29.89,SSE,160,2.0,2.0,69,0.00,,,0.00,54,Wunderground v.1.15,2013-06-18 00:40:00,
2013-06-17 19:45:00,85.8,74.9,29.89,SW,223,2.0,2.0,70,0.00,,,0.00,33,Wunderground v.1.15,2013-06-18 00:45:00,
2013-06-17 19:54:00,85.0,75.0,29.89,SSW,193,2.0,2.0,72,0.00,,,0.00,23,Wunderground v.1.15,2013-06-18 00:54:00,
2013-06-17 19:59:00,84.7,74.7,29.89,SSW,200,1.0,1.0,72,0.00,,,0.00,19,Wunderground v.1.15,2013-06-18 00:59:00,
2013-06-17 20:05:00,84.3,74.3,29.89,SW,222,1.0,1.0,72,0.00,,,0.00,14,Wunderground v.1.15,2013-06-18 01:05:00,
2013-06-17 20:15:00,83.6,74.4,29.89,SSW,199,1.0,1.0,74,0.00,,,0.00,7,Wunderground v.1.15,2013-06-18 01:15:00,
2013-06-17 20:24:00,83.0,74.3,29.89,SW,227,1.0,1.0,75,0.00,,,0.00,0,Wunderground v.1.15,2013-06-18 01:24:00,
2013-06-17 20:30:00,82.7,74.4,29.89,SSW,193,1.0,1.0,76,0.00,,,0.00,0,Wunderground v.1.15,2013-06-18 01:30:00,
2013-06-17 20:35:00,82.4,74.1,29.89,SW,223,1.0,1.0,76,0.00,,,0.00,0,Wunderground v.1.15,2013-06-18 01:35:00,
2013-06-17 20:44:00,81.8,74.3,29.89,SSW,203,1.0,1.0,78,0.00,,,0.00,0,Wunderground v.1.15,2013-06-18 01:44:00,
2013-06-17 20:50:00,81.6,74.5,29.90,South,182,1.0,1.0,79,0.00,,,0.00,0,Wunderground v.1.15,2013-06-18 01:50:00,
2013-06-17 20:55:00,81.3,74.2,29.90,South,182,0.0,1.0,79,0.00,,,0.00,0,Wunderground v.1.15,2013-06-18 01:55:00,
2013-06-17 21:00:00,81.1,74.3,29.90,South,182,0.0,0.0,80,0.00,,,0.00,0,Wunderground v.1.15,2013-06-18 02:00:00,
2013-06-17 21:09:00,80.5,74.5,29.90,South,183,0.0,0.0,82,0.00,,,0.00,0,Wunderground v.1.15,2013-06-18 02:09:00,
2013-06-17 21:14:00,80.4,74.4,29.90,SSW,209,1.0,2.0,82,0.00,,,0.00,0,Wunderground v.1.15,2013-06-18 02:14:00,
2013-06-17 21:20:00,80.3,74.7,29.90,SSW,194,1.0,2.0,83,0.00,,,0.00,0,Wunderground v.1.15,2013-06-18 02:20:00,
2013-06-17 21:30:00,80.0,74.7,29.90,South,182,0.0,0.0,84,0.00,,,0.00,0,Wunderground v.1.15,2013-06-18 02:30:00,
2013-06-17 21:40:00,79.7,74.8,29.91,South,183,0.0,0.0,85,0.00,,,0.00,0,Wunderground v.1.15,2013-06-18 02:40:00,
2013-06-17 21:45:00,79.5,74.6,29.91,South,183,0.0,0.0,85,0.00,,,0.00,0,Wunderground v.1.15,2013-06-18 02:45:00,
2013-06-17 21:50:00,79.4,74.8,29.91,SSW,194,1.0,1.0,86,0.00,,,0.00,0,Wunderground v.1.15,2013-06-18 02:50:00,
2013-06-17 22:00:00,79.2,75.0,29.91,SSE,152,0.0,0.0,87,0.00,,,0.00,0,Wunderground v.1.15,2013-06-18 03:00:00,
2013-06-17 22:10:00,78.8,74.6,29.91,SSE,154,0.0,0.0,87,0.00,,,0.00,0,Wunderground v.1.15,2013-06-18 03:10:00,
2013-06-17 22:15:00,78.7,74.8,29.90,SSE,154,0.0,0.0,88,0.00,,,0.00,0,Wunderground v.1.15,2013-06-18 03:15:00,
2013-06-17 22:24:00,78.4,74.9,29.91,SSE,158,0.0,0.0,89,0.00,,,0.00,0,Wunderground v.1.15,2013-06-18 03:24:00,
2013-06-17 22:29:00,78.2,74.7,29.91,South,186,0.0,0.0,89,0.00,,,0.00,0,Wunderground v.1.15,2013-06-18 03:29:00,
2013-06-17 22:35:00,78.2,75.0,29.91,SW,231,0.0,0.0,90,0.00,,,0.00,0,Wunderground v.1.15,2013-06-18 03:35:00,
2013-06-17 22:40:00,78.2,75.0,29.91,SW,231,0.0,0.0,90,0.00,,,0.00,0,Wunderground v.1.15,2013-06-18 03:40:00,
2013-06-17 22:45:00,78.1,74.9,29.91,SW,231,0.0,0.0,90,0.00,,,0.00,0,Wunderground v.1.15,2013-06-18 03:45:00,
2013-06-17 22:55:00,77.9,75.1,29.92,SSW,209,1.0,3.0,91,0.00,,,0.00,0,Wunderground v.1.15,2013-06-18 03:55:00,
2013-06-17 23:00:00,77.9,75.1,29.92,SSW,205,0.0,0.0,91,0.00,,,0.00,0,Wunderground v.1.15,2013-06-18 04:00:00,
2013-06-17 23:04:00,77.9,75.1,29.92,SSW,205,0.0,2.0,91,0.00,,,0.00,0,Wunderground v.1.15,2013-06-18 04:04:00,
2013-06-17 23:09:00,77.8,75.0,29.92,SSW,205,0.0,0.0,91,0.00,,,0.00,0,Wunderground v.1.15,2013-06-18 04:09:00,
2013-06-17 23:20:00,77.7,74.9,29.92,South,187,1.0,1.0,91,0.00,,,0.00,5,Wunderground v.1.15,2013-06-18 04:20:00,
2013-06-17 23:25:00,77.6,75.1,29.92,SSW,200,0.0,1.0,92,0.00,,,0.00,5,Wunderground v.1.15,2013-06-18 04:25:00,
2013-06-17 23:30:00,77.6,75.1,29.92,SSW,198,0.0,0.0,92,0.00,,,0.00,5,Wunderground v.1.15,2013-06-18 04:30:00,
2013-06-17 23:39:00,77.6,75.1,29.92,South,181,1.0,1.0,92,0.00,,,0.00,7,Wunderground v.1.15,2013-06-18 04:39:00,
2013-06-17 23:44:00,77.5,75.0,29.92,South,182,1.0,2.0,92,0.00,,,0.00,7,Wunderground v.1.15,2013-06-18 04:44:00,
2013-06-17 23:50:00,77.5,75.0,29.92,South,188,1.0,1.0,92,0.00,,,0.00,7,Wunderground v.1.15,2013-06-18 04:50:00,
2013-06-17 23:55:00,77.5,75.0,29.93,SW,234,1.0,1.0,92,0.00,,,0.00,7,Wunderground v.1.15,2013-06-18 04:55:00,